Location: Chateh
(58.6667°N, 118.6000°W)
Time: 09:22:36
(UTC+00:00)

O/OREOS (USA 219) - Pass Details

Date: 09 December 2023
Orbit: 621 x 646 km, 72.0° (Epoch: 22 May)

Event Time Altitude Azimuth Distance (km) Brightness Sun altitude
Exits shadow 14:23:12 14° 335° (NNW) 1,731 ? -14.8°
Maximum altitude 14:26:43 42° 42° (NE) 910 ? -14.4°
Drops below altitude 10° 14:31:00 10° 114° (ESE) 2,013 ? -13.8°
Sets 14:33:23 0° 121° (ESE) 2,921 ? -13.6°
